{"data":{"norad_id":59568,"epoch":"2026-09-20T06:36:38.911104Z","epoch_age_seconds":187599,"freshness":"STALE","line1":"1 59568U 24076E   26263.27545036 -.00000766  00000+0 -18301-4 0  9990","line2":"2 59568  43.0040 349.9464 0001120 273.4557  86.6167 15.27577624136170","mean_motion":15.27577624,"eccentricity":0.000112,"inclination_deg":43.004,"raan_deg":349.9464,"arg_perigee_deg":273.4557,"mean_anomaly_deg":86.6167,"bstar":-1.8301e-5,"rev_number":13617,"period_min":94.266895336508,"perigee_km":482.28775700804,"apogee_km":483.82466428723,"semimajor_km":6861.1932106476,"source":"CELESTRAK","updated_at":"2026-09-22T09:00:49.001007Z"}}